Chattanooga, TN

7:48 AM EDT on July 22, 2017 (GMT -0400)
Lovell

Weather History for KCHA - September, 2013

Change the Weather History Date:

Sunday, September 29, 2013

  Actual Average Record
Temperature  
Mean Temperature 66 °F 68 °F  
Max Temperature 75 °F 79 °F 94 °F (1904)
Min Temperature 57 °F 56 °F 37 °F (1942)
Degree Days  
Heating Degree Days 0 2  
Month to date heating degree days 0 12  
Since 1 July heating degree days 0 12  
Cooling Degree Days 1 4  
Month to date cooling degree days 275 236  
Year to date cooling degree days 1667 1686  
Growing Degree Days 16 (Base 50)    
Moisture  
Dew Point 56 °F    
Average Humidity 71    
Maximum Humidity 93    
Minimum Humidity 49    
Precipitation  
Precipitation T in 0.15 in 2.24 in (1989)
Month to date precipitation 2.11 3.90  
Year to date precipitation 56.31 39.16  
Snow  
Snow 0.00 in - - ()
Month to date snowfall 0.0  
Snow Depth 0.00 in    
Sea Level Pressure  
Sea Level Pressure 30.10 in    
Wind  
Wind Speed 2 mph (SSE)    
Max Wind Speed 10 mph    
Max Gust Speed 18 mph    
Visibility 10 miles    
Events Fog , Rain    
T = Trace of Precipitation, MM = Missing Value Source: NWS Daily Summary

Daily Weather History Graph

Daily Weather History Graph

Search for Another Location

Airport or City:

Trip Planner

Search our weather history database for the weather conditions in past years. The results will help you decide how hot, cold, wet, or windy it might be!

Date:

Astronomy

Sep. 29, 2013 Rise Set
Actual Time 7:34 AM EDT 7:27 PM EDT
Civil Twilight 7:08 AM EDT 7:52 PM EDT
Nautical Twilight 6:39 AM EDT 8:21 PM EDT
Astronomical Twilight 6:10 AM EDT 8:51 PM EDT
Moon 2:25 AM EDT (9/29) 4:13 PM EDT (9/29)
Length of Visible Light 12h 43m
Length of Day
11h 52m
Waning Crescent, 27% of the Moon is Illuminated
Sep 29
Waning Crescent
Oct 4
New
Oct 11
First Quarter
Oct 18
Full
Oct 26
Last Quarter

Hourly Weather History & Observations

Time (EDT) Temp. Dew Point Humidity Pressure Visibility Wind Dir Wind Speed Gust Speed Precip Events Conditions
12:53 AM 64.9 °F 59.0 °F 81% 30.15 in 10.0 mi Calm Calm - N/A   Overcast
1:53 AM 64.0 °F 57.9 °F 80% 30.14 in 10.0 mi SE 3.5 mph - N/A   Mostly Cloudy
2:53 AM 62.1 °F 57.0 °F 84% 30.14 in 10.0 mi Calm Calm - N/A   Partly Cloudy
3:53 AM 61.0 °F 57.0 °F 87% 30.13 in 10.0 mi Calm Calm - N/A   Clear
4:53 AM 59.0 °F 55.9 °F 90% 30.13 in 10.0 mi Calm Calm - N/A   Clear
5:53 AM 57.9 °F 55.0 °F 90% 30.12 in 10.0 mi Calm Calm - N/A   Scattered Clouds
6:53 AM 57.0 °F 55.0 °F 93% 30.14 in 10.0 mi Calm Calm - N/A   Scattered Clouds
7:53 AM 57.9 °F 55.0 °F 90% 30.15 in 10.0 mi Calm Calm - N/A Fog Shallow Fog
8:53 AM 59.0 °F 55.0 °F 87% 30.15 in 10.0 mi Calm Calm - N/A   Scattered Clouds
9:53 AM 63.0 °F 55.0 °F 75% 30.16 in 10.0 mi Variable 3.5 mph - N/A   Scattered Clouds
10:53 AM 66.0 °F 55.0 °F 68% 30.15 in 10.0 mi South 3.5 mph - N/A   Scattered Clouds
11:53 AM 71.1 °F 53.1 °F 53% 30.14 in 10.0 mi Variable 5.8 mph - N/A   Mostly Cloudy
12:53 PM 72.0 °F 53.1 °F 51% 30.12 in 10.0 mi Variable 4.6 mph - N/A   Mostly Cloudy
1:53 PM 73.0 °F 54.0 °F 51% 30.09 in 10.0 mi SSE 5.8 mph - N/A   Mostly Cloudy
2:53 PM 73.9 °F 53.1 °F 48% 30.06 in 10.0 mi Variable 3.5 mph - N/A   Mostly Cloudy
3:53 PM 73.0 °F 54.0 °F 51% 30.04 in 10.0 mi ESE 4.6 mph - N/A   Mostly Cloudy
4:53 PM 73.9 °F 54.0 °F 50% 30.04 in 10.0 mi Calm Calm - N/A   Mostly Cloudy
5:53 PM 73.0 °F 55.0 °F 53% 30.04 in 10.0 mi Calm Calm - N/A   Mostly Cloudy
6:53 PM 72.0 °F 57.0 °F 59% 30.04 in 10.0 mi Calm Calm - N/A   Mostly Cloudy
7:53 PM 70.0 °F 57.9 °F 65% 30.04 in 10.0 mi Calm Calm - N/A   Mostly Cloudy
8:53 PM 69.1 °F 59.0 °F 70% 30.03 in 10.0 mi Calm Calm - N/A   Mostly Cloudy
9:53 PM 68.0 °F 60.1 °F 76% 30.04 in 8.0 mi Calm Calm - 0.00 in Rain Light Rain
10:53 PM 64.9 °F 62.1 °F 90% 30.05 in 8.0 mi NW 3.5 mph - 0.00 in Rain Light Rain
11:53 PM 66.0 °F 62.1 °F 87% 30.05 in 8.0 mi Calm Calm - 0.00 in   Mostly Cloudy